Regional Weather Roundup
Issued by NWS

Home | Current Version | Previous Version | Text Only | Print | Product List | Glossary Off
Versions: 1 2 3 4 5 6 7 8 9 10 11 12 13 14 15 16 17 18 19 20 21 22 23 24 25 26 27 28 29 30 31 32 33 34 35 36 37 38 39 40 41 42 43 44 45 46 47 48 49 50

000
ASUS43 KLMK 172010
RWRKY
KENTUCKY REGIONAL WEATHER ROUNDUP
NATIONAL WEATHER SERVICE LOUISVILLE KY
400 PM EDT WED SEP 17 2014

NOTE "FAIR" INDICATES FEW OR NO CLOUDS BELOW 12,000 FEET
WITH NO SIGNIFICANT WEATHER AND/OR OBSTRUCTIONS TO VISIBILITY.

KYZ001>023-026-027-061>063-070>075-172100-
WESTERN AND SOUTH CENTRAL KENTUCKY

CITY           SKY/WX    TMP DP  RH WIND       PRES   REMARKS
PADUCAH        CLOUDY    72  56  57 SE7       29.97F
HENDERSON      MOSUNNY   70  52  52 NE8       29.97F
OWENSBORO      PTSUNNY   70  51  50 E6        29.99F
HOPKINSVILLE   CLOUDY    71  54  55 E5        29.97F
BOWLING GREEN  SUNNY     71  53  52 W5        30.01F
GLASGOW        MOSUNNY   72  51  47 CALM      30.00F
$$

KYZ024-025-028>034-038-045-046-053-172100-
NORTH CENTRAL KENTUCKY

CITY           SKY/WX    TMP DP  RH WIND       PRES   REMARKS
LOUISVILLE/SDF PTSUNNY   71  51  49 VRB7      30.01F
LOUISVILLE/LOU MOSUNNY   69  50  50 W5        30.01F
FORT KNOX      MOSUNNY   69  53  58 NW7       30.00F
$$

KYZ035>037-039>044-047>052-055>060-089>105-172100-
NORTHEAST KENTUCKY

CITY           SKY/WX    TMP DP  RH WIND       PRES   REMARKS
LEXINGTON      MOSUNNY   72  54  53 N7        30.00F
COVINGTON      MOSUNNY   67  49  52 W5        30.01F
FRANKFORT      MOSUNNY   68  51  54 NW5       30.01S
$$

KYZ054-064>069-076>088-106>120-172100-
SOUTHEAST KENTUCKY

CITY           SKY/WX    TMP DP  RH WIND       PRES   REMARKS
JACKSON        MOSUNNY   70  53  54 CALM      29.99F
LONDON         MOSUNNY   74  54  49 VRB5      29.99F
SOMERSET       NOT AVBL
MIDDLESBORO    MOSUNNY   73  58  57 NW3       29.96F
MONTICELLO     CLEAR     72  53  51 VRB7      30.02S
$$



USA.gov is the U.S. government's official web portal to all federal, state and local government web resources and services.